Weather Roundup
Issued by NWS Corpus Christi, TX

Home | Current Version | Previous Version | Text Only | Print | Product List | Glossary On
Versions: 1 2 3 4 5 6 7 8 9 10 11 12 13 14 15 16 17 18 19 20 21 22 23 24 25 26 27 28 29 30 31 32 33 34 35 36 37 38 39 40 41 42 43 44 45 46 47 48 49 50
000
ASUS44 KCRP 300710
HRRCRP

SOUTH TEXAS REGIONAL WEATHER ROUNDUP
NATIONAL WEATHER SERVICE CORPUS CHRISTI TX
200 AM CDT WED JUL 30 2014


TXZ229>244-300800-
...CORPUS CHRISTI AREA OBSERVATIONS...

CITY           SKY/WX    TMP DP  RH WIND       PRES   REMARKS
CORPUS CHRISTI PTCLDY    75  72  90 S6        30.03S
NAS CORPUS CHR CLEAR     81  76  84 S12       30.02F
ROCKPORT       CLEAR     81  74  79 S7        30.02F
KINGSVILLE NAS PTCLDY    76  75  97 E3        30.03S
ALICE          MOCLDY    77  74  90 SE5       30.03F
FALFURRIAS     CLEAR     64  32  29 S5        30.02F
$$

...VICTORIA AREA OBSERVATIONS...

CITY           SKY/WX    TMP DP  RH WIND       PRES   REMARKS
VICTORIA       PTCLDY    78  75  90 S6        30.04S
BEEVILLE       FAIR      75  74  96 S5        30.03F
PLEASANTON     CLEAR     78  69  73 SE8       30.05S
SAN ANTONIO    MOCLDY    78  64  61 SE10      30.06S
$$

...LAREDO AREA OBSERVATIONS...

CITY           SKY/WX    TMP DP  RH WIND       PRES   REMARKS
LAREDO         CLEAR     84  70  63 SE13      30.04R
COTULLA        CLEAR     81  66  60 SE12      30.01S
DEL RIO        CLEAR     85  60  42 SE12      29.99S
MCALLEN        CLEAR     80  75  84 SE7       30.03F
HEBBRONVILLE   CLEAR     78  72  82 E7        30.05F
$$

...OTHER TEXAS OBSERVATIONS...

CITY           SKY/WX    TMP DP  RH WIND       PRES   REMARKS
BROWNSVILLE    CLEAR     77  75  93 SE6       30.03F
HOUSTON        PTCLDY    74  73  97 CALM      30.04F
COL. STATION   CLEAR     77  73  87 SE5       30.05S
AUSTIN         PTCLDY    73  68  84 CALM      30.05S
WACO           CLEAR     73  67  81 CALM      30.03F
FORT WORTH     MOCLDY    75  63  66 E3        30.04F
WICHITA FALLS  CLOUDY    72  67  84 SE8       30.03F
LUBBOCK        MOCLDY    70  65  84 SE9       30.10F
EL PASO        NOT AVBL
$$

...MARINE OBSERVATIONS...

STATION/POSITION TIME  SKY/WX   TEMP    WIND        PRES    VSBY  WAVE   SWELL
                                AIR SEA DIR/SP/G                  HT/PER HT/PER
                 (UTC)          (F)     (DEG/KT/KT) (MB)    (MI)  (FT/S) (FT/S)
PORT ARANSAS     0700            80 83  160/  8/  9 1017.2F
BUOY 90 E PORT A 0700            83 84  170/  6/  8 1017.4F         1/ 5   2/ 5
BUOY 45 SE BAFFI 0700            83 84  170/ 14/ 16 1016.5F         2/ 3
BUOY 200 E PT IS 0700            83 86   90/  2/  4 1017.1F         1
BUOY 15 E GALVES NOT AVBL
$$


USA.gov is the U.S. government's official web portal to all federal, state and local government web resources and services.